Tracking 20241 objects as of 28-Jan-2020
HD Live streaming from Space Station
objects crossing your sky now

RAX-2

Track RAX-2 now!
10-day predictions
RAX-2 is classified as:


NORAD ID: 37853
Int'l Code: 2011-061D
Perigee: 445.1 km
Apogee: 679.1 km
Inclination: 101.7 °
Period: 95.8 minutes
Semi major axis: 6933 km
RCS: 0.0758 m2 (small)
Launch date: October 28, 2011
Source: United States (US)
Launch site: AIR FORCE WESTERN TEST RANGE (AFWTR)

Uplink (MHz):
Downlink (MHz): 437.345
Beacon (MHz):
Mode: 9600bps GMSK
Call sign:
Status: Inactive

aabbcc
Your satellite tracking list
Your tracking list is empty




NASA's NSSDC Master Catalog

Two Line Element Set (TLE):
1 37853U 11061D   20028.55083868 +.00000670 +00000-0 +44070-4 0  9992
2 37853 101.7242 034.7381 0168817 148.5152 212.6297 15.03875303449650
Source of the keplerian elements: AFSPC